Beatrice, NE

5:57 PM CDT on October 16, 2017 (GMT -0500)
Beatrice Municipal

Weather History for KBIE - January, 2005

Change the Weather History Date:

Monday, January 3, 2005

  Actual Average Record
Temperature  
Mean Temperature 24 °F -  
Max Temperature 28 °F 29 °F 58 °F (1955)
Min Temperature 19 °F 9 °F -8 °F (1968)
Degree Days  
Heating Degree Days 42    
Moisture  
Dew Point 21 °F    
Average Humidity 93    
Maximum Humidity 100    
Minimum Humidity 86    
Precipitation  
Precipitation 0.13 in - - ()
Sea Level Pressure  
Sea Level Pressure 30.28 in    
Wind  
Wind Speed 9 mph (North)    
Max Wind Speed 13 mph    
Max Gust Speed -    
Visibility 6 miles    
Events Snow    
Averages and records for this station are not official NWS values.
T = Trace of Precipitation, MM = Missing Value Source: NWS Daily Summary

Daily Weather History Graph

Daily Weather History Graph

Search for Another Location

Airport or City:

Trip Planner

Search our weather history database for the weather conditions in past years. The results will help you decide how hot, cold, wet, or windy it might be!

Date:

Astronomy

Jan. 03, 2005 Rise Set
Actual Time 7:50 AM CST 5:13 PM CST
Civil Twilight 7:19 AM CST 5:44 PM CST
Nautical Twilight 6:45 AM CST 6:18 PM CST
Astronomical Twilight 6:12 AM CST 6:51 PM CST
Moon 12:08 AM CST (1/3) 12:09 PM CST (1/3)
Length of Visible Light 10h 24m
Length of Day
9h 23m
Waning Gibbous, 50% of the Moon is Illuminated
Jan 3
Waning Gibbous
Jan 10
New
Jan 17
First Quarter
Jan 25
Full
Feb 2
Last Quarter

Hourly Weather History & Observations

Time (CST) Temp. Windchill Dew Point Humidity Pressure Visibility Wind Dir Wind Speed Gust Speed Precip Events Conditions
12:10 AM 26.6 °F 18.2 °F 23.0 °F 86% 30.29 in 5.0 mi North 8.1 mph - N/A   Overcast
12:30 AM 26.6 °F 16.2 °F 24.8 °F 93% 30.29 in 7.0 mi North 11.5 mph - N/A   Overcast
12:50 AM 26.6 °F 17.5 °F 24.8 °F 93% 30.28 in 7.0 mi North 9.2 mph - 0.01 in Snow Light Snow
1:10 AM 26.6 °F 17.5 °F 24.8 °F 93% 30.28 in 5.0 mi NNE 9.2 mph - N/A   Overcast
1:30 AM 26.6 °F 17.5 °F 26.6 °F 100% 30.28 in 5.0 mi North 9.2 mph - 0.01 in   Overcast
1:50 AM 26.6 °F 16.2 °F 26.6 °F 100% 30.25 in 7.0 mi North 11.5 mph - 0.02 in   Overcast
2:10 AM 26.6 °F 16.2 °F 26.6 °F 100% 30.25 in 7.0 mi NNE 11.5 mph - N/A   Overcast
2:30 AM 28.4 °F 18.0 °F 26.6 °F 93% 30.24 in 7.0 mi NNE 12.7 mph - N/A Snow Light Snow
3:11 AM 28.4 °F 19.7 °F 26.6 °F 93% 30.24 in 4.0 mi NE 9.2 mph - 0.01 in Snow Light Snow
3:50 AM 28.4 °F 20.4 °F 26.6 °F 93% 30.24 in 7.0 mi NE 8.1 mph - 0.01 in   Overcast
4:14 AM 28.4 °F 19.7 °F 26.6 °F 93% 30.22 in 7.0 mi NNE 9.2 mph - 0.01 in   Overcast
4:50 AM 26.6 °F 19.1 °F 24.8 °F 93% 30.24 in 7.0 mi NNE 6.9 mph - 0.01 in   Overcast
5:32 AM 26.6 °F 16.8 °F 26.6 °F 100% 30.28 in 3.0 mi North 10.4 mph - 0.02 in Snow Light Snow
5:51 AM 26.6 °F 16.8 °F 26.6 °F 100% 30.26 in 4.0 mi North 10.4 mph - 0.02 in Snow Light Snow
6:31 AM 26.6 °F 17.5 °F 26.6 °F 100% 30.25 in 5.0 mi NNE 9.2 mph - 0.02 in Snow Light Snow
6:50 AM 26.6 °F 15.7 °F 24.8 °F 93% 30.26 in 7.0 mi North 12.7 mph - 0.02 in   Overcast
7:12 AM 26.6 °F 16.8 °F 24.8 °F 93% 30.26 in 5.0 mi North 10.4 mph - N/A   Overcast
7:31 AM 24.8 °F 14.0 °F 23.0 °F 93% 30.27 in 5.0 mi North 11.5 mph - 0.01 in   Overcast
7:50 AM 24.8 °F 14.6 °F 21.2 °F 86% 30.27 in 7.0 mi NNE 10.4 mph - 0.01 in   Overcast
8:10 AM 24.8 °F 14.0 °F 21.2 °F 86% 30.27 in 5.0 mi NNE 11.5 mph - N/A   Overcast
8:32 AM 24.8 °F 14.0 °F 21.2 °F 86% 30.27 in 4.0 mi North 11.5 mph - N/A Snow Light Snow
8:50 AM 23.0 °F 13.1 °F 21.2 °F 93% 30.27 in 2.0 mi North 9.2 mph - N/A Snow Light Snow
9:32 AM 23.0 °F 12.4 °F 21.2 °F 93% 30.29 in 4.0 mi North 10.4 mph - N/A   Overcast
9:51 AM 23.0 °F 13.9 °F 21.2 °F 93% 30.29 in 3.0 mi North 8.1 mph - N/A   Overcast
10:14 AM 23.0 °F 13.9 °F 21.2 °F 93% 30.30 in 4.0 mi North 8.1 mph - N/A   Overcast
10:30 AM 23.0 °F 13.9 °F 21.2 °F 93% 30.30 in 4.0 mi North 8.1 mph - N/A   Overcast
10:50 AM 21.2 °F 10.9 °F 21.2 °F 100% 30.29 in 2.5 mi North 9.2 mph - N/A Snow Light Snow
11:10 AM 23.0 °F 14.7 °F 21.2 °F 93% 30.29 in 1.5 mi North 6.9 mph - 0.01 in Snow Light Snow
11:52 AM 23.0 °F 13.9 °F 21.2 °F 93% 30.28 in 2.5 mi North 8.1 mph - 0.02 in Snow Light Snow
12:53 PM 24.8 °F 14.6 °F 21.2 °F 86% 30.26 in 3.0 mi North 10.4 mph - 0.02 in   Overcast
1:13 PM 23.0 °F 12.4 °F 21.2 °F 93% 30.25 in 4.0 mi North 10.4 mph - N/A   Overcast
1:30 PM 23.0 °F 11.7 °F 21.2 °F 93% 30.25 in 3.0 mi North 11.5 mph - N/A   Overcast
1:50 PM 23.0 °F 14.7 °F 21.2 °F 93% 30.24 in 5.0 mi North 6.9 mph - N/A   Overcast
2:10 PM 23.0 °F 13.1 °F 21.2 °F 93% 30.24 in 7.0 mi North 9.2 mph - N/A   Overcast
2:30 PM 23.0 °F 14.7 °F 19.4 °F 86% 30.25 in 7.0 mi North 6.9 mph - N/A   Overcast
2:50 PM 23.0 °F 13.1 °F 19.4 °F 86% 30.25 in 10.0 mi North 9.2 mph - N/A   Overcast
3:10 PM 21.2 °F 11.7 °F 19.4 °F 93% 30.26 in 7.0 mi North 8.1 mph - N/A   Overcast
3:31 PM 21.2 °F 13.6 °F 19.4 °F 93% 30.26 in 7.0 mi North 5.8 mph - N/A   Overcast
3:50 PM 21.2 °F 11.7 °F 21.2 °F 100% 30.27 in 7.0 mi North 8.1 mph - N/A   Overcast
4:10 PM 21.2 °F 10.9 °F 19.4 °F 93% 30.28 in 4.0 mi North 9.2 mph - N/A   Overcast
4:32 PM 21.2 °F 11.7 °F 19.4 °F 93% 30.29 in 4.0 mi North 8.1 mph - N/A   Overcast
4:50 PM 21.2 °F 11.7 °F 19.4 °F 93% 30.28 in 5.0 mi North 8.1 mph - N/A   Overcast
5:11 PM 21.2 °F 11.7 °F 19.4 °F 93% 30.28 in 7.0 mi North 8.1 mph - N/A   Overcast
5:32 PM 21.2 °F 12.6 °F 19.4 °F 93% 30.28 in 7.0 mi North 6.9 mph - N/A   Overcast
5:50 PM 21.2 °F 13.6 °F 19.4 °F 93% 30.29 in 7.0 mi North 5.8 mph - N/A   Overcast
6:12 PM 21.2 °F 16.4 °F 19.4 °F 93% 30.30 in 7.0 mi NNE 3.5 mph - N/A   Overcast
6:32 PM 21.2 °F 14.9 °F 19.4 °F 93% 30.30 in 7.0 mi NNE 4.6 mph - N/A   Overcast
6:52 PM 21.2 °F 14.9 °F 19.4 °F 93% 30.30 in 7.0 mi North 4.6 mph - N/A   Overcast
7:30 PM 21.2 °F 12.6 °F 19.4 °F 93% 30.30 in 7.0 mi NNE 6.9 mph - N/A   Overcast
7:51 PM 21.2 °F 12.6 °F 17.6 °F 86% 30.30 in 10.0 mi North 6.9 mph - N/A   Overcast
8:13 PM 19.4 °F 14.3 °F 17.6 °F 93% 30.32 in 10.0 mi North 3.5 mph - N/A   Overcast
8:31 PM 19.4 °F 14.3 °F 17.6 °F 93% 30.32 in 7.0 mi NNE 3.5 mph - N/A   Overcast
8:52 PM 19.4 °F - 17.6 °F 93% 30.33 in 10.0 mi Calm Calm - N/A   Overcast
9:10 PM 19.4 °F 14.3 °F 17.6 °F 93% 30.33 in 10.0 mi North 3.5 mph - N/A   Overcast
9:30 PM 19.4 °F 11.5 °F 17.6 °F 93% 30.33 in 7.0 mi North 5.8 mph - N/A   Overcast
9:33 PM 21.2 °F 13.6 °F 19.4 °F 93% 30.33 in 10.0 mi North 5.8 mph - N/A   Overcast
10:10 PM 21.2 °F 14.9 °F 19.4 °F 93% 30.32 in 7.0 mi North 4.6 mph - N/A   Overcast
10:11 PM 19.4 °F 11.5 °F 17.6 °F 93% 30.32 in 7.0 mi North 5.8 mph - N/A   Overcast
10:30 PM 21.2 °F 13.6 °F 19.4 °F 93% 30.32 in 7.0 mi North 5.8 mph - N/A   Overcast
11:10 PM 21.2 °F 13.6 °F 19.4 °F 93% 30.32 in 7.0 mi North 5.8 mph - N/A   Overcast
11:11 PM 19.4 °F 11.5 °F 17.6 °F 93% 30.32 in 10.0 mi North 5.8 mph - N/A   Overcast
11:54 PM 19.4 °F 11.5 °F 17.6 °F 93% 30.31 in 7.0 mi NNE 5.8 mph - N/A   Overcast